Time,TemperatureF,DewpointF,PressureIn,WindDirection,WindDirectionDegrees,WindSpeedMPH,WindSpeedGustMPH,Humidity,HourlyPrecipIn,Conditions,Clouds,dailyrainin,SoftwareType,DateUTC
2013-06-27 00:02:00,66.0,65.0,29.77,ESE,118,0.0,0.0,98,0.00,,,0.10,,2013-06-27 05:02:00,
2013-06-27 00:12:00,66.0,65.0,29.77,ESE,118,0.0,0.0,98,0.00,,,0.10,,2013-06-27 05:12:00,
2013-06-27 00:22:00,66.0,65.0,29.77,SSW,211,0.0,0.0,98,0.00,,,0.10,,2013-06-27 05:22:00,
2013-06-27 00:32:00,66.0,65.0,29.77,SSW,211,0.0,0.0,98,0.00,,,0.10,,2013-06-27 05:32:00,
2013-06-27 00:42:00,66.0,65.0,29.76,SSW,212,0.0,0.0,98,0.00,,,0.10,,2013-06-27 05:42:00,
2013-06-27 00:53:00,65.0,64.0,29.76,SSW,211,0.0,0.0,98,0.00,,,0.10,,2013-06-27 05:53:00,
2013-06-27 01:01:00,65.0,64.0,29.76,SSW,211,0.0,0.0,98,0.00,,,0.10,,2013-06-27 06:01:00,
2013-06-27 01:12:00,65.0,64.0,29.76,SSW,211,0.0,0.0,98,0.00,,,0.10,,2013-06-27 06:12:00,
2013-06-27 01:22:00,65.0,64.0,29.76,SSW,211,0.0,0.0,98,0.00,,,0.10,,2013-06-27 06:22:00,
2013-06-27 01:34:00,64.0,63.0,29.76,SSW,211,0.0,0.0,98,0.00,,,0.10,,2013-06-27 06:34:00,
2013-06-27 01:43:00,64.0,63.0,29.76,SSW,211,0.0,0.0,98,0.00,,,0.10,,2013-06-27 06:43:00,
2013-06-27 01:53:00,64.0,63.0,29.76,SSW,211,0.0,0.0,98,0.00,,,0.10,,2013-06-27 06:53:00,
2013-06-27 02:02:00,64.0,63.0,29.76,SSW,211,0.0,0.0,98,0.00,,,0.10,,2013-06-27 07:02:00,
2013-06-27 02:12:00,64.0,64.0,29.76,WSW,239,0.0,0.0,99,0.00,,,0.10,,2013-06-27 07:12:00,
2013-06-27 02:22:00,65.0,65.0,29.76,WSW,241,0.0,0.0,99,0.00,,,0.10,,2013-06-27 07:22:00,
2013-06-27 02:33:00,65.0,65.0,29.76,West,273,0.0,0.0,99,0.00,,,0.10,,2013-06-27 07:33:00,
2013-06-27 02:42:00,65.0,65.0,29.76,West,272,0.0,0.0,99,0.00,,,0.10,,2013-06-27 07:42:00,
2013-06-27 02:52:00,66.0,66.0,29.76,WSW,244,0.0,0.0,99,0.00,,,0.10,,2013-06-27 07:52:00,
2013-06-27 03:01:00,65.0,65.0,29.76,WSW,245,0.0,0.0,99,0.00,,,0.10,,2013-06-27 08:01:00,
2013-06-27 03:11:00,65.0,65.0,29.75,WSW,244,0.0,0.0,99,0.00,,,0.10,,2013-06-27 08:11:00,
2013-06-27 03:22:00,65.0,65.0,29.75,WSW,245,0.0,0.0,99,0.00,,,0.10,,2013-06-27 08:22:00,
2013-06-27 03:34:00,65.0,65.0,29.76,WSW,245,0.0,0.0,99,0.00,,,0.10,,2013-06-27 08:34:00,
2013-06-27 03:43:00,65.0,64.0,29.76,WSW,245,0.0,0.0,98,0.00,,,0.10,,2013-06-27 08:43:00,
2013-06-27 03:52:00,64.0,63.0,29.76,WSW,245,0.0,0.0,98,0.00,,,0.10,,2013-06-27 08:52:00,
2013-06-27 04:02:00,64.0,64.0,29.75,WSW,245,0.0,0.0,99,0.00,,,0.10,,2013-06-27 09:02:00,
2013-06-27 04:11:00,64.0,64.0,29.75,WSW,245,0.0,0.0,99,0.00,,,0.10,,2013-06-27 09:11:00,
2013-06-27 04:22:00,64.0,64.0,29.75,WSW,245,0.0,0.0,99,0.00,,,0.10,,2013-06-27 09:22:00,
2013-06-27 04:34:00,63.0,63.0,29.76,WSW,245,0.0,0.0,99,0.00,,,0.10,,2013-06-27 09:34:00,
2013-06-27 04:43:00,63.0,63.0,29.76,WSW,245,0.0,0.0,99,0.00,,,0.10,,2013-06-27 09:43:00,
2013-06-27 04:53:00,64.0,64.0,29.76,WSW,245,0.0,0.0,99,0.00,,,0.10,,2013-06-27 09:53:00,
2013-06-27 05:01:00,63.0,63.0,29.76,WSW,245,0.0,0.0,99,0.00,,,0.10,,2013-06-27 10:01:00,
2013-06-27 05:11:00,63.0,63.0,29.77,WSW,245,0.0,0.0,99,0.00,,,0.10,,2013-06-27 10:11:00,
2013-06-27 05:22:00,63.0,63.0,29.77,WSW,245,0.0,0.0,99,0.00,,,0.10,,2013-06-27 10:22:00,
2013-06-27 05:32:00,63.0,63.0,29.77,WSW,245,0.0,0.0,99,0.00,,,0.10,,2013-06-27 10:32:00,
2013-06-27 05:44:00,63.0,63.0,29.77,WSW,245,0.0,0.0,99,0.00,,,0.10,,2013-06-27 10:44:00,
2013-06-27 05:54:00,64.0,64.0,29.77,WSW,244,0.0,0.0,99,0.00,,,0.10,,2013-06-27 10:54:00,
2013-06-27 06:01:00,64.0,64.0,29.77,WSW,243,0.0,0.0,99,0.00,,,0.10,,2013-06-27 11:01:00,
2013-06-27 06:11:00,64.0,64.0,29.77,WSW,245,0.0,0.0,99,0.00,,,0.10,,2013-06-27 11:11:00,
2013-06-27 06:22:00,64.0,64.0,29.77,WSW,245,0.0,0.0,99,0.00,,,0.10,,2013-06-27 11:22:00,
2013-06-27 06:33:00,65.0,65.0,29.77,WSW,245,0.0,0.0,99,0.00,,,0.10,,2013-06-27 11:33:00,
2013-06-27 06:43:00,65.0,65.0,29.77,WSW,245,0.0,0.0,99,0.00,,,0.10,,2013-06-27 11:43:00,
2013-06-27 06:52:00,66.0,66.0,29.77,WSW,245,0.0,0.0,99,0.00,,,0.10,,2013-06-27 11:52:00,
2013-06-27 07:02:00,67.0,67.0,29.77,NW,305,0.0,0.0,99,0.00,,,0.10,,2013-06-27 12:02:00,
2013-06-27 07:11:00,68.0,68.0,29.77,WNW,302,0.0,0.0,99,0.00,,,0.10,,2013-06-27 12:11:00,
2013-06-27 07:22:00,69.0,69.0,29.77,WNW,284,0.0,0.0,99,0.00,,,0.10,,2013-06-27 12:22:00,
2013-06-27 07:34:00,70.0,69.0,29.77,WSW,256,0.0,0.0,98,0.00,,,0.10,,2013-06-27 12:34:00,
2013-06-27 07:42:00,72.0,71.0,29.76,NW,325,0.0,0.0,96,0.00,,,0.10,,2013-06-27 12:42:00,
2013-06-27 08:01:00,74.0,71.0,29.76,West,266,0.0,1.0,90,0.00,,,0.10,,2013-06-27 13:01:00,
2013-06-27 08:11:00,74.0,71.0,29.76,West,273,0.0,1.0,90,0.00,,,0.10,,2013-06-27 13:11:00,
2013-06-27 08:22:00,74.0,71.0,29.76,West,264,1.0,6.0,89,0.00,,,0.10,,2013-06-27 13:22:00,
2013-06-27 08:34:00,74.0,71.0,29.76,WNW,293,0.0,5.0,90,0.00,,,0.10,,2013-06-27 13:34:00,
2013-06-27 08:43:00,75.0,72.0,29.76,SW,215,0.0,3.0,89,0.00,,,0.10,,2013-06-27 13:43:00,
2013-06-27 08:52:00,76.0,72.0,29.76,West,262,2.0,7.0,87,0.00,,,0.10,,2013-06-27 13:52:00,
2013-06-27 09:02:00,77.0,72.0,29.76,SW,222,1.0,6.0,86,0.00,,,0.10,,2013-06-27 14:02:00,
2013-06-27 09:11:00,78.0,73.0,29.76,NNW,328,0.0,3.0,85,0.00,,,0.10,,2013-06-27 14:11:00,
2013-06-27 09:22:00,78.0,73.0,29.76,NNW,332,0.0,8.0,85,0.00,,,0.07,,2013-06-27 14:22:00,
2013-06-27 09:33:00,78.0,73.0,29.76,West,259,1.0,6.0,84,0.00,,,0.07,,2013-06-27 14:33:00,
2013-06-27 09:43:00,78.0,72.0,29.76,NNW,335,0.0,6.0,83,0.00,,,0.07,,2013-06-27 14:43:00,
2013-06-27 09:52:00,79.0,73.0,29.76,NNW,329,2.0,5.0,81,0.00,,,0.07,,2013-06-27 14:52:00,
2013-06-27 10:12:00,80.0,73.0,29.76,NW,304,1.0,8.0,80,0.00,,,0.07,,2013-06-27 15:12:00,
2013-06-27 10:22:00,80.0,73.0,29.76,NW,316,1.0,6.0,79,0.00,,,0.00,,2013-06-27 15:22:00,
2013-06-27 10:33:00,80.0,73.0,29.76,NW,319,2.0,6.0,79,0.00,,,0.00,,2013-06-27 15:33:00,
2013-06-27 10:42:00,81.0,73.0,29.76,NNW,348,1.0,6.0,78,0.00,,,0.00,,2013-06-27 15:42:00,
2013-06-27 10:52:00,81.0,73.0,29.75,West,262,0.0,7.0,76,0.00,,,0.00,,2013-06-27 15:52:00,
2013-06-27 11:02:00,82.0,72.0,29.75,NNW,330,2.0,7.0,73,0.00,,,0.00,,2013-06-27 16:02:00,
2013-06-27 11:11:00,82.0,72.0,29.75,North,351,2.0,6.0,71,0.00,,,0.00,,2013-06-27 16:11:00,
2013-06-27 11:23:00,82.0,72.0,29.75,NW,322,1.0,8.0,72,0.00,,,0.00,,2013-06-27 16:23:00,
2013-06-27 11:34:00,82.0,70.0,29.75,North,1,5.0,9.0,68,0.00,,,0.00,,2013-06-27 16:34:00,
2013-06-27 11:43:00,83.0,71.0,29.75,WNW,295,3.0,10.0,68,0.00,,,0.00,,2013-06-27 16:43:00,
2013-06-27 11:53:00,83.0,70.0,29.75,NNE,29,2.0,10.0,64,0.00,,,0.00,,2013-06-27 16:53:00,
2013-06-27 12:01:00,84.0,70.0,29.75,WNW,297,1.0,7.0,64,0.00,,,0.00,,2013-06-27 17:01:00,
2013-06-27 12:11:00,84.0,70.0,29.75,NW,311,2.0,8.0,62,0.00,,,0.00,,2013-06-27 17:11:00,
2013-06-27 12:22:00,84.0,70.0,29.75,WNW,300,0.0,6.0,62,0.00,,,0.00,,2013-06-27 17:22:00,
2013-06-27 12:33:00,85.0,69.0,29.75,NNW,333,1.0,6.0,59,0.00,,,0.00,,2013-06-27 17:33:00,
2013-06-27 12:43:00,85.0,70.0,29.75,North,356,1.0,5.0,60,0.00,,,0.00,,2013-06-27 17:43:00,
2013-06-27 12:53:00,84.0,70.0,29.75,NNW,347,1.0,7.0,62,0.00,,,0.00,,2013-06-27 17:53:00,
2013-06-27 13:01:00,85.0,70.0,29.75,SW,226,3.0,8.0,62,0.00,,,0.00,,2013-06-27 18:01:00,
2013-06-27 13:11:00,85.0,69.0,29.76,WNW,302,1.0,5.0,59,0.00,,,0.00,,2013-06-27 18:11:00,
2013-06-27 13:22:00,86.0,69.0,29.75,WSW,255,0.0,4.0,58,0.00,,,0.00,,2013-06-27 18:22:00,
2013-06-27 13:32:00,86.0,70.0,29.75,NW,308,0.0,9.0,59,0.00,,,0.00,,2013-06-27 18:32:00,
2013-06-27 13:44:00,86.0,70.0,29.75,WNW,287,0.0,3.0,59,0.00,,,0.00,,2013-06-27 18:44:00,
2013-06-27 13:52:00,86.0,69.0,29.75,West,266,0.0,7.0,58,0.00,,,0.00,,2013-06-27 18:52:00,
2013-06-27 14:01:00,86.0,69.0,29.75,NNW,342,3.0,7.0,57,0.00,,,0.00,,2013-06-27 19:01:00,
2013-06-27 14:11:00,86.0,68.0,29.75,East,85,0.0,6.0,56,0.00,,,0.00,,2013-06-27 19:11:00,
2013-06-27 14:23:00,87.0,68.0,29.74,NW,316,0.0,7.0,54,0.00,,,0.00,,2013-06-27 19:23:00,
2013-06-27 14:34:00,87.0,69.0,29.74,NNE,21,1.0,9.0,55,0.00,,,0.00,,2013-06-27 19:34:00,
2013-06-27 14:42:00,87.0,69.0,29.74,WSW,249,0.0,7.0,56,0.00,,,0.00,,2013-06-27 19:42:00,
2013-06-27 14:53:00,87.0,70.0,29.72,WSW,243,0.0,4.0,58,0.00,,,0.00,,2013-06-27 19:53:00,
2013-06-27 15:01:00,86.0,69.0,29.73,WSW,250,0.0,1.0,58,0.00,,,0.00,,2013-06-27 20:01:00,
2013-06-27 15:11:00,84.0,67.0,29.72,NNE,21,0.0,2.0,57,0.00,,,0.00,,2013-06-27 20:11:00,
2013-06-27 15:22:00,84.0,69.0,29.72,SW,221,0.0,3.0,60,0.00,,,0.00,,2013-06-27 20:22:00,
2013-06-27 15:36:00,82.0,66.0,29.74,NNW,332,11.0,18.0,59,0.00,,,0.00,,2013-06-27 20:36:00,
2013-06-27 16:05:00,71.0,64.0,29.73,East,91,0.0,4.0,79,0.00,,,0.00,,2013-06-27 21:05:00,
2013-06-27 16:13:00,72.0,65.0,29.72,NNW,338,0.0,1.0,79,0.00,,,0.00,,2013-06-27 21:13:00,
2013-06-27 16:24:00,73.0,66.0,29.72,NNW,333,0.0,0.0,80,0.00,,,0.00,,2013-06-27 21:24:00,
2013-06-27 16:36:00,73.0,66.0,29.72,NNW,327,0.0,0.0,78,0.00,,,0.00,,2013-06-27 21:36:00,
2013-06-27 16:45:00,74.0,67.0,29.71,NNW,328,0.0,0.0,78,0.00,,,0.00,,2013-06-27 21:45:00,
2013-06-27 16:53:00,74.0,67.0,29.72,West,280,0.0,0.0,79,0.00,,,0.00,,2013-06-27 21:53:00,
2013-06-27 17:06:00,73.0,67.0,29.72,ENE,58,0.0,3.0,82,0.00,,,0.00,,2013-06-27 22:06:00,
2013-06-27 17:14:00,73.0,68.0,29.70,WSW,247,0.0,0.0,85,0.00,,,0.00,,2013-06-27 22:14:00,
2013-06-27 17:23:00,72.0,68.0,29.70,WSW,245,0.0,0.0,87,0.00,,,0.00,,2013-06-27 22:23:00,
2013-06-27 17:34:00,75.0,69.0,29.70,WSW,257,0.0,3.0,83,0.00,,,0.00,,2013-06-27 22:34:00,
2013-06-27 17:48:00,76.0,69.0,29.69,North,359,0.0,6.0,79,0.00,,,0.00,,2013-06-27 22:48:00,
2013-06-27 17:55:00,77.0,70.0,29.69,WSW,250,0.0,5.0,79,0.00,,,0.00,,2013-06-27 22:55:00,
2013-06-27 18:05:00,77.0,70.0,29.68,WNW,286,0.0,4.0,79,0.00,,,0.00,,2013-06-27 23:05:00,
2013-06-27 18:15:00,77.0,69.0,29.69,WSW,238,0.0,1.0,77,0.00,,,0.00,,2013-06-27 23:15:00,
2013-06-27 18:25:00,77.0,69.0,29.68,WSW,245,0.0,1.0,76,0.00,,,0.00,,2013-06-27 23:25:00,
2013-06-27 18:34:00,77.0,69.0,29.68,WSW,239,0.0,0.0,77,0.00,,,0.00,,2013-06-27 23:34:00,
2013-06-27 18:45:00,78.0,70.0,29.68,WSW,250,0.0,0.0,77,0.00,,,0.00,,2013-06-27 23:45:00,
2013-06-27 18:55:00,78.0,69.0,29.68,SW,228,0.0,1.0,75,0.00,,,0.00,,2013-06-27 23:55:00,
2013-06-27 19:06:00,78.0,69.0,29.68,SW,233,0.0,0.0,75,0.00,,,0.00,,2013-06-28 00:06:00,
2013-06-27 19:13:00,78.0,69.0,29.68,West,268,0.0,0.0,75,0.00,,,0.00,,2013-06-28 00:13:00,
2013-06-27 19:27:00,78.0,69.0,29.69,WSW,247,0.0,0.0,75,0.00,,,0.00,,2013-06-28 00:27:00,
2013-06-27 19:34:00,78.0,69.0,29.69,North,354,0.0,0.0,74,0.00,,,0.00,,2013-06-28 00:34:00,
2013-06-27 19:45:00,78.0,70.0,29.69,WSW,256,0.0,0.0,76,0.00,,,0.00,,2013-06-28 00:45:00,
2013-06-27 19:54:00,79.0,70.0,29.69,WNW,284,0.0,0.0,75,0.00,,,0.00,,2013-06-28 00:54:00,
2013-06-27 20:13:00,79.0,70.0,29.69,West,259,0.0,0.0,74,0.00,,,0.00,,2013-06-28 01:13:00,
2013-06-27 20:24:00,78.0,70.0,29.69,West,259,0.0,0.0,76,0.00,,,0.00,,2013-06-28 01:24:00,
2013-06-27 20:35:00,77.0,70.0,29.69,SW,232,0.0,2.0,79,0.01,,,0.01,,2013-06-28 01:35:00,
2013-06-27 20:45:00,75.0,70.0,29.70,WNW,296,0.0,0.0,85,0.01,,,0.01,,2013-06-28 01:45:00,
2013-06-27 20:55:00,74.0,70.0,29.70,WNW,297,0.0,0.0,87,0.01,,,0.01,,2013-06-28 01:55:00,
2013-06-27 21:16:00,72.0,69.0,29.69,NW,311,0.0,0.0,91,0.01,,,0.01,,2013-06-28 02:16:00,
2013-06-27 21:27:00,72.0,70.0,29.69,NW,311,0.0,0.0,93,0.01,,,0.01,,2013-06-28 02:27:00,
2013-06-27 21:36:00,71.0,69.0,29.70,NE,50,1.0,4.0,94,0.00,,,0.01,,2013-06-28 02:36:00,
2013-06-27 21:54:00,70.0,67.0,29.72,NNE,30,2.0,8.0,89,0.00,,,0.01,,2013-06-28 02:54:00,
2013-06-27 22:06:00,69.0,66.0,29.72,ENE,67,0.0,2.0,90,0.00,,,0.01,,2013-06-28 03:06:00,
2013-06-27 22:14:00,68.0,65.0,29.72,East,82,0.0,0.0,91,0.00,,,0.01,,2013-06-28 03:14:00,
2013-06-27 22:26:00,68.0,66.0,29.72,East,80,0.0,0.0,92,0.00,,,0.01,,2013-06-28 03:26:00,
2013-06-27 22:36:00,67.0,65.0,29.72,East,86,0.0,0.0,92,0.00,,,0.01,,2013-06-28 03:36:00,
2013-06-27 22:44:00,66.0,64.0,29.71,East,86,0.0,0.0,93,0.00,,,0.01,,2013-06-28 03:44:00,
2013-06-27 22:55:00,66.0,64.0,29.70,East,86,0.0,0.0,92,0.00,,,0.01,,2013-06-28 03:55:00,
2013-06-27 23:02:00,66.0,64.0,29.70,East,86,0.0,0.0,92,0.00,,,0.01,,2013-06-28 04:02:00,
2013-06-27 23:11:00,65.0,63.0,29.70,East,84,0.0,0.0,92,0.00,,,0.01,,2013-06-28 04:11:00,
2013-06-27 23:22:00,65.0,63.0,29.70,East,86,0.0,0.0,93,0.00,,,0.01,,2013-06-28 04:22:00,
2013-06-27 23:33:00,64.0,62.0,29.70,NNE,12,0.0,0.0,94,0.00,,,0.01,,2013-06-28 04:33:00,
2013-06-27 23:43:00,64.0,63.0,29.71,NNW,343,0.0,0.0,95,0.00,,,0.01,,2013-06-28 04:43:00,
2013-06-27 23:53:00,65.0,64.0,29.72,North,354,0.0,6.0,95,0.00,,,0.01,,2013-06-28 04:53:00,